QPF
0.00 0.00 0.00 0.00 0.00 0.00 0.00 0.00 0.00 0.00 0.00 0.00 0.00 0.00 0.00 0.00 0.00 0.00 0.01 0.03 0.04 0.15 0.16 0.16 0.18 0.11 0.06 0.11 0.14 0.11 0.06 0.06 0.03 0.06 0.06 0.07 0.02 0.00 0.00 0.00 0.00 0.00 0.00
0.00 0.00 0.00 0.00 0.00 0.00 0.00 0.00 0.00 0.00 0.00 0.00 0.00 0.00 0.00 0.00 0.00 0.00 0.00 0.01 0.02 0.04 0.03 0.05 0.06 0.01 0.00 0.02 0.04 0.02 0.01 0.02 0.04 0.05 0.08 0.10 0.05 0.01 0.00 0.00 0.00 0.00 0.00
0.01 0.08 0.09 0.02 0.00 0.00 0.00 0.00 0.00 0.00 0.00 0.00 0.00 0.00 0.00 0.00 0.00 0.00 0.00 0.00 0.01 0.04 0.06 0.05 0.06 0.05 0.02 0.01 0.02 0.02 0.05 0.05 0.06 0.06 0.07 0.06 0.02 0.00 0.00 0.00 0.00 0.00 0.00
0.11 0.15 0.10 0.03 0.00 0.00 0.00 0.00 0.00 0.00 0.00 0.00 0.00 0.00 0.00 0.00 0.00 0.00 0.00 0.00 0.00 0.01 0.03 0.06 0.07 0.07 0.08 0.07 0.06 0.05 0.04 0.03 0.04 0.03 0.05 0.01 0.00 0.00 0.00 0.00 0.00 0.00 0.00
0.33 0.39 0.52 0.49 0.42 0.20 0.02 0.00 0.00 0.00 0.00 0.00 0.00 0.00 0.00 0.00 0.00 0.00 0.00 0.00 0.00 0.00 0.00 0.01 0.03 0.04 0.02 0.02 0.04 0.05 0.05 0.04 0.04 0.03 0.03 0.00 0.00 0.00 0.00 0.00 0.01 0.00 0.00
0.77 0.77 0.85 0.85 0.67 0.35 0.14 0.05 0.00 0.00 0.00 0.00 0.00 0.00 0.00 0.00 0.00 0.00 0.00 0.00 0.00 0.00 0.00 0.00 0.00 0.00 0.00 0.00 0.00 0.00 0.01 0.02 0.04 0.03 0.02 0.00 0.00 0.00 0.00 0.00 0.01 0.00 0.00
0.32 0.33 0.40 0.25 0.16 0.13 0.13 0.09 0.02 0.02 0.01 0.00 0.00 0.00 0.00 0.00 0.00 0.00 0.00 0.00 0.00 0.00 0.00 0.00 0.00 0.00 0.00 0.00 0.00 0.00 0.00 0.00 0.00 0.01 0.00 0.00 0.00 0.00 0.00 0.00 0.01 0.00 0.00
0.05 0.12 0.05 0.02 0.04 0.07 0.11 0.12 0.17 0.16 0.04 0.00 0.00 0.00 0.00 0.00 0.00 0.00 0.00 0.00 0.00 0.00 0.00 0.00 0.00 0.00 0.00 0.00 0.00 0.00 0.00 0.00 0.00 0.00 0.00 0.00 0.02 0.01 0.00 0.00 0.00 0.00 0.00
0.03 0.11 0.12 0.13 0.21 0.22 0.27 0.29 0.32 0.30 0.22 0.05 0.01 0.00 0.00 0.00 0.00 0.00 0.00 0.00 0.00 0.00 0.00 0.00 0.00 0.00 0.00 0.00 0.00 0.00 0.00 0.00 0.00 0.00 0.00 0.00 0.00 0.00 0.00 0.00 0.00 0.00 0.00
0.00 0.01 0.03 0.11 0.20 0.25 0.28 0.29 0.33 0.31 0.34 0.17 0.09 0.07 0.06 0.07 0.01 0.02 0.00 0.00 0.00 0.00 0.00 0.00 0.00 0.00 0.00 0.00 0.00 0.00 0.00 0.00 0.00 0.00 0.00 0.00 0.00 0.00 0.00 0.00 0.00 0.00 0.00
0.00 0.00 0.00 0.00 0.01 0.04 0.11 0.20 0.20 0.23 0.28 0.28 0.28 0.22 0.16 0.13 0.12 0.05 0.00 0.00 0.01 0.01 0.01 0.00 0.00 0.00 0.00 0.00 0.00 0.00 0.00 0.01 0.01 0.00 0.00 0.00 0.00 0.00 0.00 0.00 0.00 0.00 0.00
0.00 0.00 0.00 0.00 0.00 0.00 0.00 0.01 0.05 0.11 0.14 0.22 0.28 0.21 0.07 0.08 0.05 0.01 0.00 0.00 0.01 0.02 0.02 0.03 0.02 0.01 0.00 0.00 0.00 0.00 0.00 0.00 0.03 0.04 0.02 0.00 0.00 0.00 0.00 0.00 0.00 0.01 0.00
0.00 0.00 0.00 0.00 0.00 0.00 0.00 0.00 0.00 0.03 0.03 0.04 0.06 0.05 0.03 0.01 0.00 0.00 0.00 0.00 0.00 0.00 0.00 0.00 0.00 0.00 0.00 0.00 0.00 0.00 0.01 0.01 0.03 0.06 0.03 0.01 0.00 0.00 0.00 0.00 0.00 0.00 0.01
0.00 0.00 0.00 0.00 0.00 0.00 0.00 0.00 0.00 0.00 0.00 0.00 0.00 0.00 0.00 0.00 0.00 0.00 0.00 0.00 0.00 0.00 0.00 0.00 0.00 0.00 0.00 0.00 0.00 0.01 0.01 0.01 0.02 0.04 0.04 0.06 0.07 0.05 0.01 0.00 0.00 0.00 0.00
0.00 0.00 0.00 0.00 0.00 0.00 0.00 0.00 0.00 0.00 0.00 0.00 0.00 0.00 0.00 0.00 0.00 0.00 0.00 0.00 0.00 0.00 0.00 0.00 0.00 0.00 0.00 0.00 0.00 0.01 0.02 0.02 0.03 0.05 0.09 0.10 0.11 0.12 0.07 0.05 0.02 0.00 0.00
0.00 0.00 0.00 0.00 0.00 0.00 0.00 0.00 0.00 0.00 0.00 0.00 0.00 0.00 0.00 0.00 0.00 0.00 0.00 0.00 0.00 0.00 0.00 0.00 0.00 0.00 0.00 0.00 0.00 0.01 0.00 0.00 0.02 0.06 0.11 0.12 0.13 0.13 0.21 0.15 0.08 0.03 0.00
0.00 0.00 0.00 0.00 0.00 0.00 0.00 0.00 0.00 0.00 0.00 0.00 0.00 0.00 0.00 0.00 0.00 0.00 0.00 0.00 0.00 0.00 0.00 0.00 0.00 0.00 0.00 0.00 0.01 0.01 0.01 0.00 0.02 0.07 0.12 0.14 0.16 0.17 0.18 0.11 0.06 0.03 0.02
0.00 0.00 0.00 0.00 0.00 0.00 0.00 0.00 0.00 0.00 0.00 0.00 0.00 0.00 0.00 0.00 0.00 0.00 0.00 0.00 0.00 0.00 0.00 0.00 0.02 0.01 0.02 0.02 0.01 0.02 0.04 0.03 0.05 0.07 0.07 0.06 0.04 0.02 0.01 0.01 0.01 0.02 0.02
0.00 0.00 0.00 0.00 0.00 0.00 0.00 0.00 0.00 0.00 0.00 0.00 0.00 0.00 0.00 0.00 0.00 0.00 0.00 0.00 0.00 0.00 0.00 0.01 0.00 0.00 0.00 0.01 0.03 0.05 0.05 0.03 0.02 0.02 0.02 0.01 0.00 0.00 0.00 0.00 0.00 0.00 0.00
0.00 0.00 0.00 0.00 0.00 0.00 0.00 0.00 0.00 0.00 0.00 0.00 0.00 0.00 0.00 0.00 0.00 0.00 0.00 0.00 0.00 0.00 0.00 0.00 0.00 0.00 0.00 0.00 0.01 0.00 0.00 0.00 0.00 0.00 0.00 0.00 0.00 0.00 0.00 0.00 0.00 0.00 0.00
0.00 0.00 0.00 0.00 0.00 0.00 0.00 0.00 0.00 0.00 0.00 0.00 0.00 0.00 0.00 0.00 0.00 0.00 0.00 0.00 0.00 0.00 0.00 0.00 0.00 0.00 0.00 0.00 0.00 0.00 0.00 0.00 0.00 0.00 0.00 0.00 0.00 0.00 0.00 0.00 0.00 0.00 0.00
0.00 0.00 0.00 0.00 0.00 0.00 0.00 0.00 0.00 0.00 0.00 0.00 0.00 0.00 0.00 0.00 0.00 0.00 0.00 0.00 0.00 0.00 0.00 0.00 0.00 0.00 0.00 0.00 0.00 0.00 0.00 0.00 0.00 0.00 0.00 0.00 0.00 0.00 0.00 0.00 0.00 0.00 0.00
0.00 0.00 0.00 0.00 0.00 0.00 0.00 0.00 0.00 0.00 0.00 0.00 0.00 0.00 0.00 0.00 0.00 0.00 0.00 0.00 0.00 0.00 0.00 0.00 0.00 0.00 0.00 0.00 0.00 0.00 0.00 0.00 0.00 0.00 0.00 0.00 0.00 0.01 0.01 0.00 0.00 0.00 0.00
0.00 0.00 0.00 0.00 0.00 0.00 0.00 0.00 0.00 0.00 0.00 0.00 0.02 0.01 0.00 0.00 0.00 0.00 0.00 0.00 0.00 0.00 0.00 0.00 0.00 0.00 0.01 0.01 0.01 0.00 0.00 0.00 0.00 0.00 0.00 0.00 0.00 0.00 0.00 0.00 0.00 0.00 0.00
0.00 0.00 0.00 0.00 0.00 0.00 0.00 0.00 0.00 0.00 0.00 0.02 0.04 0.04 0.01 0.00 0.00 0.00 0.00 0.00 0.00 0.00 0.00 0.00 0.00 0.00 0.00 0.00 0.00 0.00 0.00 0.00 0.00 0.00 0.00 0.00 0.00 0.00 0.01 0.00 0.00 0.00 0.00
0.00 0.00 0.00 0.00 0.00 0.00 0.00 0.00 0.00 0.00 0.00 0.00 0.06 0.10 0.07 0.08 0.04 0.03 0.00 0.01 0.00 0.00 0.00 0.00 0.00 0.00 0.00 0.00 0.00 0.00 0.00 0.00 0.00 0.00 0.00 0.00 0.00 0.00 0.00 0.00 0.00 0.00 0.00
MSLP
999.66 1000.35 1001.08 1001.68 1002.18 1002.99 1003.31 1004.00 1004.52 1005.04 1005.55 1006.10 1006.46 1006.82 1007.20 1007.68 1008.27 1008.57 1008.83 1009.17 1009.55 1009.82 1010.06 1010.33 1010.78 1010.98 1011.30 1011.35 1011.57 1011.78 1012.28 1012.38 1012.51 1012.60 1012.93 1013.26 1013.75 1013.80 1014.04 1014.29 1014.60 1014.83 1015.29
998.65 999.51 1000.42 1001.42 1002.05 1002.72 1002.99 1003.47 1004.15 1004.93 1005.54 1005.94 1005.94 1006.18 1006.49 1007.01 1007.56 1008.15 1008.36 1008.29 1008.70 1009.26 1009.71 1010.13 1010.37 1010.58 1010.98 1011.28 1011.38 1011.41 1011.59 1011.84 1012.39 1012.71 1012.76 1013.14 1013.35 1013.63 1014.02 1014.17 1014.34 1014.66 1014.85
998.84 1000.00 1001.17 1001.71 1001.99 1002.08 1002.11 1002.49 1003.14 1004.11 1004.84 1005.35 1005.50 1005.56 1006.04 1006.41 1006.81 1007.24 1007.71 1007.77 1008.04 1008.39 1008.90 1009.53 1009.85 1010.16 1010.63 1010.96 1011.17 1011.45 1011.59 1011.76 1012.06 1012.37 1012.65 1012.98 1013.59 1013.77 1014.20 1014.50 1014.55 1014.78 1015.05
999.02 1000.01 1000.73 1000.86 1001.14 1001.50 1001.69 1002.13 1002.62 1003.10 1003.80 1004.44 1004.90 1005.18 1005.31 1005.73 1006.16 1006.64 1007.17 1007.58 1007.75 1007.97 1008.35 1008.73 1009.21 1009.51 1009.92 1010.38 1010.81 1011.09 1011.34 1011.63 1011.99 1012.24 1012.56 1012.99 1013.51 1013.99 1014.24 1014.60 1014.79 1014.78 1014.86
999.52 1000.04 1001.02 1001.98 1002.09 1001.07 1000.74 1001.36 1002.72 1003.18 1003.12 1003.79 1004.33 1004.92 1004.93 1005.20 1005.52 1005.83 1006.23 1006.83 1007.45 1007.62 1007.73 1008.23 1008.68 1008.86 1009.09 1009.44 1010.12 1010.59 1010.93 1011.33 1011.60 1011.82 1012.20 1012.68 1013.17 1013.79 1014.04 1014.27 1014.43 1014.54 1014.48
1002.73 1003.33 1003.77 1003.59 1004.10 1003.10 999.08 1001.83 1001.94 1003.13 1003.27 1003.26 1003.73 1004.85 1005.00 1004.67 1004.74 1005.52 1005.96 1005.90 1006.63 1007.40 1007.44 1007.55 1007.89 1008.29 1008.68 1008.82 1009.17 1009.72 1010.19 1010.65 1011.18 1011.56 1011.76 1012.07 1012.54 1012.97 1013.40 1013.75 1014.03 1014.19 1014.17
1003.20 1002.40 1003.08 1003.56 1003.10 1000.67 1000.20 1003.66 1002.45 1003.73 1003.46 1003.25 1003.81 1004.31 1005.06 1004.94 1004.97 1005.41 1005.83 1005.61 1005.83 1006.46 1006.99 1006.89 1007.12 1007.43 1007.74 1008.23 1008.75 1009.17 1009.51 1009.89 1010.24 1010.62 1010.96 1011.11 1011.49 1011.83 1012.61 1013.14 1013.27 1013.37 1013.22
1000.89 1002.19 1002.82 1003.81 1002.28 1005.44 1003.89 1002.28 1003.89 1003.88 1003.52 1002.96 1003.52 1004.36 1004.67 1004.72 1005.38 1005.66 1006.01 1006.28 1005.65 1005.90 1006.62 1006.56 1006.68 1006.91 1007.26 1007.58 1008.18 1008.81 1009.13 1009.46 1009.79 1010.10 1010.22 1010.39 1010.46 1010.78 1011.57 1012.10 1012.50 1012.80 1012.86
1002.17 1002.48 1004.34 1004.77 1005.98 1006.69 1006.33 1004.68 1004.05 1003.43 1003.25 1002.92 1003.61 1004.20 1004.67 1004.66 1005.33 1005.60 1006.16 1006.60 1006.12 1005.70 1005.96 1006.36 1006.36 1006.61 1006.87 1007.28 1007.70 1008.10 1008.33 1008.49 1008.76 1008.91 1009.34 1009.77 1009.95 1010.10 1010.69 1011.58 1012.23 1012.55 1012.38
1004.06 1004.40 1005.14 1005.63 1005.43 1006.34 1005.84 1004.43 1003.88 1003.54 1003.08 1003.30 1003.67 1003.79 1004.21 1004.55 1005.24 1005.90 1006.09 1006.14 1006.27 1005.73 1005.57 1005.89 1006.30 1006.39 1006.59 1006.80 1007.30 1007.66 1007.91 1008.14 1008.38 1009.11 1009.31 1009.47 1009.68 1010.12 1010.35 1010.71 1011.14 1011.71 1012.00
1005.19 1005.34 1004.74 1004.79 1005.63 1005.56 1005.27 1004.48 1004.03 1003.76 1003.91 1004.13 1004.30 1004.22 1004.20 1004.42 1004.78 1005.69 1006.04 1006.01 1006.08 1005.69 1005.37 1004.99 1005.45 1005.72 1005.87 1006.32 1006.61 1007.05 1007.20 1007.43 1007.69 1008.21 1008.72 1008.83 1009.10 1009.49 1009.85 1010.24 1010.70 1010.86 1011.07
1006.25 1006.17 1005.77 1005.56 1005.44 1005.00 1004.61 1004.41 1004.44 1004.27 1003.47 1003.94 1001.83 1003.51 1003.67 1004.07 1004.46 1005.16 1005.51 1005.95 1005.68 1005.99 1005.68 1005.37 1005.47 1006.01 1006.24 1006.65 1007.01 1006.56 1006.59 1006.81 1007.11 1007.69 1008.03 1008.26 1008.40 1008.36 1008.59 1009.19 1009.70 1010.09 1010.16
1006.99 1006.64 1006.46 1006.02 1005.43 1005.18 1005.32 1005.33 1005.07 1004.17 1003.84 1004.47 1004.00 1005.06 1004.75 1005.15 1005.05 1005.34 1006.09 1006.41 1006.51 1006.48 1005.96 1005.45 1005.86 1006.04 1006.01 1006.24 1006.36 1006.51 1006.76 1006.94 1006.66 1006.84 1007.07 1007.08 1007.18 1007.46 1007.75 1008.31 1008.86 1009.14 1009.46
1006.26 1006.24 1006.09 1005.86 1005.19 1005.20 1005.15 1004.47 1004.17 1004.45 1004.72 1004.96 1005.23 1005.73 1005.88 1006.00 1006.04 1006.13 1005.97 1006.36 1006.43 1006.13 1006.19 1005.54 1005.41 1005.45 1005.45 1005.50 1005.74 1006.08 1006.28 1005.84 1005.59 1005.82 1005.92 1006.16 1006.20 1006.61 1006.94 1007.25 1007.86 1008.59 1009.01
1005.79 1005.56 1005.36 1004.64 1004.76 1004.73 1004.73 1004.41 1004.77 1005.48 1005.90 1005.83 1005.69 1006.08 1006.43 1006.71 1006.50 1006.56 1006.62 1006.73 1006.55 1006.29 1006.94 1005.87 1005.57 1005.10 1005.14 1005.20 1005.18 1005.30 1005.39 1005.45 1005.41 1005.07 1005.17 1005.51 1005.88 1006.26 1006.52 1006.60 1007.13 1007.74 1008.19
1006.26 1005.75 1005.62 1005.48 1005.27 1005.09 1005.19 1005.41 1005.95 1006.18 1005.61 1005.80 1006.37 1006.96 1006.70 1006.09 1006.26 1006.56 1007.02 1006.70 1006.47 1006.65 1006.71 1005.73 1005.17 1004.83 1004.87 1004.90 1004.92 1004.99 1004.79 1004.60 1004.66 1004.83 1004.36 1004.85 1005.74 1006.04 1006.24 1006.45 1006.86 1007.12 1007.40
1006.07 1005.88 1005.69 1005.52 1005.35 1005.45 1005.37 1005.40 1005.46 1005.96 1006.26 1006.85 1006.82 1006.65 1006.79 1006.65 1006.67 1006.58 1006.52 1006.37 1005.96 1006.30 1006.22 1004.99 1004.41 1004.08 1004.18 1004.32 1004.30 1004.23 1004.09 1003.86 1003.88 1004.40 1004.43 1005.18 1005.81 1006.18 1006.54 1006.89 1006.89 1006.99 1007.00
1006.01 1005.85 1005.55 1005.12 1004.99 1004.92 1004.55 1004.67 1004.65 1005.02 1004.93 1005.35 1005.31 1005.86 1006.20 1006.44 1006.86 1006.86 1006.32 1005.69 1006.10 1006.28 1005.54 1004.86 1004.29 1003.87 1003.92 1003.80 1003.88 1003.98 1004.02 1003.79 1004.01 1004.46 1004.83 1005.10 1005.59 1006.10 1006.45 1006.75 1006.98 1007.01 1007.13
1005.75 1005.45 1005.15 1005.03 1005.06 1004.83 1004.47 1004.44 1004.32 1004.43 1004.21 1004.06 1004.77 1005.65 1005.49 1005.82 1006.64 1006.88 1006.45 1006.41 1006.31 1005.79 1004.92 1004.56 1004.37 1004.36 1004.26 1004.05 1003.91 1003.88 1003.91 1003.99 1004.16 1004.47 1004.76 1005.26 1005.47 1005.96 1006.56 1007.10 1007.17 1007.47 1007.23
1005.56 1005.17 1005.02 1004.90 1004.54 1004.36 1004.07 1003.72 1003.70 1003.54 1003.39 1003.43 1004.37 1005.21 1005.69 1005.67 1006.29 1006.56 1006.63 1006.56 1006.48 1005.85 1005.06 1004.66 1004.60 1004.55 1004.53 1004.43 1004.25 1004.17 1004.20 1004.44 1004.53 1004.71 1004.93 1005.19 1005.69 1006.10 1006.66 1007.06 1007.46 1007.57 1008.01
1005.44 1004.77 1004.46 1004.44 1004.23 1003.97 1003.59 1003.35 1003.45 1003.26 1003.11 1003.32 1004.73 1006.13 1006.53 1006.16 1006.29 1006.57 1006.62 1006.20 1005.95 1005.68 1005.49 1005.27 1005.05 1004.86 1004.91 1004.80 1004.98 1004.87 1004.73 1004.99 1005.01 1005.24 1005.64 1005.65 1005.74 1006.29 1006.98 1007.24 1007.63 1007.97 1008.02
1005.41 1004.90 1004.81 1004.81 1004.79 1004.48 1004.48 1004.12 1003.63 1003.59 1003.76 1003.88 1004.66 1005.89 1005.71 1006.21 1006.31 1006.66 1006.61 1006.33 1006.19 1006.00 1005.78 1005.75 1005.82 1005.73 1005.66 1005.48 1005.52 1005.50 1005.67 1005.72 1005.86 1005.98 1006.12 1006.21 1006.56 1006.84 1007.05 1007.62 1007.90 1008.35 1008.34
1005.15 1004.69 1004.89 1004.91 1004.81 1004.67 1004.38 1004.18 1004.14 1004.26 1004.17 1004.00 1004.28 1004.70 1005.20 1005.86 1006.41 1006.54 1006.45 1006.44 1006.28 1006.05 1006.24 1006.01 1006.01 1005.74 1005.54 1005.59 1005.64 1006.05 1006.05 1006.29 1006.40 1006.46 1006.57 1006.82 1007.10 1007.49 1007.47 1007.91 1008.04 1008.32 1008.44
1005.11 1004.90 1004.91 1004.82 1004.83 1004.62 1004.71 1004.52 1004.42 1004.33 1004.40 1004.22 1004.44 1004.78 1004.90 1005.46 1006.14 1006.36 1006.38 1006.31 1006.25 1006.05 1006.18 1006.23 1006.07 1005.98 1006.15 1005.92 1005.61 1005.83 1006.07 1006.17 1006.33 1006.55 1006.62 1006.86 1007.28 1007.01 1007.63 1007.78 1007.95 1007.91 1008.51
1004.27 1004.39 1004.56 1004.73 1004.95 1005.04 1005.15 1005.17 1005.32 1005.19 1005.09 1005.12 1005.01 1005.02 1005.02 1005.38 1005.52 1005.70 1006.17 1006.08 1005.92 1006.09 1006.40 1006.29 1005.84 1005.87 1006.04 1006.14 1006.22 1006.48 1006.83 1006.34 1006.03 1006.54 1006.17 1006.58 1006.61 1007.00 1007.38 1007.38 1007.50 1007.68 1008.38
1004.24 1004.26 1004.37 1004.42 1004.51 1004.55 1004.92 1005.17 1005.28 1005.36 1005.22 1005.28 1005.25 1005.23 1005.22 1005.46 1005.55 1005.56 1005.49 1005.50 1005.63 1005.94 1006.02 1005.97 1006.02 1005.92 1006.17 1006.78 1007.08 1007.17 1006.81 1006.88 1006.67 1006.57 1006.18 1006.24 1006.50 1006.52 1006.57 1006.88 1007.24 1007.70 1008.30
Thickness
5848 5845 5839 5835 5832 5825 5822 5817 5812 5808 5804 5797 5793 5790 5786 5782 5777 5774 5771 5768 5763 5761 5759 5755 5750 5746 5743 5745 5746 5742 5738 5739 5736 5738 5743 5742 5738 5738 5737 5734 5732 5729 5725
5849 5843 5836 5829 5825 5820 5818 5815 5810 5802 5799 5796 5797 5794 5790 5784 5780 5773 5770 5773 5768 5761 5758 5754 5751 5748 5741 5739 5741 5741 5740 5741 5735 5728 5735 5735 5734 5734 5731 5730 5728 5724 5722
5836 5825 5816 5815 5817 5818 5818 5818 5813 5804 5799 5796 5795 5794 5789 5786 5781 5778 5773 5773 5770 5766 5762 5756 5753 5750 5744 5741 5739 5737 5736 5736 5735 5732 5729 5730 5726 5726 5723 5720 5720 5718 5715
5817 5815 5813 5818 5822 5818 5814 5812 5809 5806 5800 5797 5795 5793 5793 5787 5783 5780 5775 5770 5768 5766 5763 5760 5755 5751 5747 5744 5740 5737 5736 5733 5730 5728 5726 5723 5721 5718 5716 5713 5711 5712 5711
5807 5807 5803 5800 5802 5809 5810 5806 5798 5797 5797 5794 5792 5788 5790 5787 5784 5782 5779 5774 5766 5764 5765 5761 5755 5754 5752 5747 5741 5737 5735 5730 5727 5725 5723 5719 5716 5711 5710 5710 5708 5708 5708
5768 5762 5759 5759 5755 5745 5788 5793 5793 5786 5788 5786 5788 5781 5781 5786 5786 5779 5777 5776 5769 5760 5759 5760 5758 5752 5749 5748 5744 5740 5736 5729 5724 5721 5721 5717 5714 5711 5709 5707 5705 5702 5701
5755 5738 5746 5749 5746 5732 5733 5757 5772 5769 5776 5777 5774 5778 5772 5776 5775 5773 5770 5774 5772 5764 5758 5760 5758 5757 5752 5747 5742 5738 5735 5732 5729 5726 5720 5719 5717 5715 5710 5705 5705 5704 5705
5769 5746 5745 5734 5740 5715 5723 5752 5758 5761 5767 5773 5768 5766 5769 5771 5763 5763 5762 5760 5767 5766 5756 5758 5756 5753 5751 5747 5741 5734 5733 5731 5727 5724 5723 5721 5722 5720 5712 5708 5705 5703 5704
5748 5744 5734 5733 5718 5716 5714 5746 5756 5757 5760 5764 5760 5758 5758 5763 5756 5755 5755 5752 5755 5759 5757 5752 5755 5752 5748 5744 5740 5735 5732 5731 5731 5728 5725 5720 5719 5718 5712 5706 5699 5696 5697
5725 5722 5723 5722 5729 5720 5725 5742 5749 5751 5752 5753 5753 5754 5755 5756 5749 5745 5748 5749 5746 5751 5754 5751 5745 5745 5743 5739 5736 5732 5728 5726 5726 5721 5719 5718 5717 5714 5709 5707 5702 5694 5692
5713 5709 5721 5723 5716 5717 5719 5728 5731 5734 5740 5741 5740 5740 5742 5744 5743 5737 5738 5742 5741 5744 5747 5751 5746 5742 5739 5734 5734 5732 5728 5727 5724 5720 5716 5714 5714 5711 5708 5703 5699 5696 5692
5698 5698 5701 5704 5706 5711 5715 5716 5718 5724 5733 5729 5704 5722 5731 5735 5734 5733 5735 5732 5737 5733 5734 5740 5739 5733 5731 5725 5721 5726 5724 5721 5720 5714 5710 5709 5706 5708 5708 5705 5701 5697 5696
5680 5685 5689 5693 5698 5702 5700 5701 5703 5711 5718 5717 5704 5707 5712 5713 5721 5723 5721 5719 5717 5719 5724 5728 5724 5724 5724 5721 5719 5717 5712 5711 5712 5708 5706 5707 5707 5705 5705 5700 5696 5694 5693
5679 5679 5681 5683 5688 5689 5688 5694 5695 5693 5693 5696 5693 5694 5693 5694 5702 5708 5713 5713 5711 5714 5712 5718 5720 5720 5719 5719 5717 5711 5711 5713 5713 5709 5708 5704 5704 5701 5700 5700 5693 5686 5684
5673 5676 5679 5687 5683 5682 5681 5684 5679 5676 5675 5677 5681 5680 5678 5681 5692 5691 5695 5698 5700 5703 5693 5706 5707 5710 5711 5710 5711 5710 5708 5705 5701 5705 5701 5697 5695 5694 5692 5693 5688 5682 5678
5663 5669 5672 5674 5674 5674 5672 5670 5662 5658 5665 5666 5664 5663 5672 5683 5684 5681 5678 5683 5686 5684 5687 5696 5699 5703 5702 5700 5700 5699 5701 5701 5698 5695 5697 5694 5687 5685 5685 5685 5681 5677 5675
5658 5661 5665 5667 5669 5667 5667 5666 5667 5662 5656 5653 5657 5661 5662 5666 5669 5674 5674 5674 5678 5676 5682 5692 5697 5699 5698 5697 5697 5697 5697 5698 5696 5691 5691 5684 5677 5675 5672 5669 5670 5669 5669
5656 5655 5659 5664 5665 5666 5671 5669 5670 5667 5671 5671 5669 5665 5662 5661 5660 5660 5666 5671 5675 5666 5675 5680 5685 5690 5690 5692 5691 5689 5687 5688 5686 5682 5678 5678 5672 5667 5664 5661 5659 5659 5657
5655 5656 5660 5661 5660 5662 5666 5666 5668 5667 5670 5674 5671 5662 5662 5657 5653 5650 5654 5657 5659 5665 5671 5673 5674 5674 5675 5677 5678 5677 5676 5674 5673 5670 5668 5662 5660 5656 5651 5647 5645 5641 5644
5653 5654 5655 5657 5660 5661 5663 5665 5665 5667 5670 5671 5664 5657 5654 5653 5651 5647 5643 5644 5644 5649 5655 5659 5658 5658 5657 5657 5659 5660 5657 5655 5655 5653 5651 5648 5644 5641 5637 5634 5630 5629 5626
5650 5656 5656 5655 5657 5658 5661 5661 5659 5660 5661 5660 5648 5636 5629 5639 5636 5632 5630 5633 5635 5636 5635 5637 5639 5641 5639 5639 5637 5638 5639 5637 5636 5633 5630 5629 5630 5625 5619 5618 5615 5613 5613
5645 5649 5648 5646 5645 5646 5644 5647 5650 5649 5647 5646 5641 5632 5629 5628 5624 5620 5618 5619 5620 5620 5621 5620 5618 5618 5618 5619 5619 5618 5615 5614 5614 5614 5613 5612 5608 5606 5603 5600 5598 5595 5595
5642 5645 5642 5640 5641 5639 5641 5641 5640 5636 5636 5638 5637 5635 5630 5621 5613 5611 5611 5610 5610 5610 5608 5609 5606 5607 5608 5606 5604 5600 5599 5597 5597 5597 5596 5593 5589 5586 5586 5584 5584 5584 5582
5635 5635 5633 5632 5631 5633 5630 5631 5631 5630 5629 5630 5627 5623 5621 5614 5605 5602 5601 5600 5599 5599 5597 5595 5594 5594 5592 5592 5593 5590 5588 5587 5586 5586 5585 5583 5578 5579 5575 5574 5574 5576 5570
5636 5632 5629 5624 5620 5618 5615 5614 5611 5612 5613 5611 5611 5609 5609 5605 5601 5598 5592 5592 5592 5590 5585 5584 5588 5586 5584 5583 5580 5576 5574 5578 5578 5573 5579 5577 5575 5569 5563 5568 5568 5568 5562
5629 5627 5623 5621 5618 5616 5610 5606 5604 5603 5604 5602 5600 5599 5598 5594 5592 5591 5590 5589 5587 5583 5581 5580 5577 5576 5572 5569 5566 5567 5569 5568 5571 5572 5573 5573 5570 5569 5567 5564 5562 5559 5553